STARLINK-32615, 62034

Orbit data source: Space-Track

STARLINK-32615, 62034 is a payload satellite owned by SpaceX/Seattle (US) in LEO that was launched on Thu, 21 Nov 2024 UTC via an FALCON 9 launch vehicle from the Air Force Eastern Test Range (AFETR). Payloads include a variety of satellites, spacecraft, and rockets equipped with specific instruments for various scientific and technological missions. These include communications satellites like Starlink; space stations such as the ISS; scientific satellites like the Hubble; Earth observation satellites from companies like Planet Labs, Umbra, and HawkEye 360; GPS; miniature CubeSats for education and research; and military/defense satellites.

Loading next visibility...
STARLINK-32615 details
Identifier
62034, 2024-216C
Orbit
LEO
Last TLE update11 hours ago
Origin
Flag of USSpaceX/Seattle (US)
ManufacturerSpaceX/Seattle
MissionOperational spacecraft
Bus & MotorSTARLINK V2M, Unknown motor
Mass730 kg wet, ~700 kg dry
Launch date (UTC)
2024-11-21 (3 weeks ago)
Launch vehicle
FALCON 9
Launch site
Air Force Eastern Test Range (AFETR)
Object type
Payload
Rocket body
Debris
Shape & HBRUnknown
Radar Cross SectionLarge (>1 m²)

Expand to show TLE details & history

TLE from 11 hours ago
0 STARLINK-32615
1 62034U 24216C   24348.50002315 -.00006818  00000-0 -11047-3 0  9998
2 62034  42.9996 307.4167 0001167 277.5707 176.5085 15.50588286  4536
Epoch: 2024-12-13T12:00Z
Definitive object data (Epoch: 2024-12-13T12:00:02Z)
Latitude43.0237°
Longitude140.31963°
Altitude418.903 km
Speed7.665 km/s
True Right ascension02h 51m 58s
True Declination42° 50' 37"
Sunlit
Object was in full shadow at TLE epoch
Visualization TLE readout
Latitude33.47928°
Longitude87°
Altitude416.729 km
Speed7.666 km/s
Apparent Right ascension03h 17m 23s
Apparent Declination-6° 30' 21"
Sunlit
Object is in daylight
Visualization observer readout
Local Sidereal Time21:10:52
Azimuth93.96° ESE
Elevation-5.416°
Doppler factor1
Orbital elements
Apogee altitude417.765 km
Perigee altitude416.179 km
Semi-major axis6,795.109 km
Eccentricity0.0001167
Inclination42.9996°
RAAN307.4167°
Arg. of periapsis277.5707°
True anomaly176.50931°
Mean anomaly176.5085°
Eccentric anomaly176.50891°
Mean motion3.87479 °/min
BSTAR-0.00011047
Orbital period92.91 mins
Loading maneuver chart data...
Loading historical data...
Loading historical data...
Loading historical data...
Loading historical data...
Loading historical data...
Loading historical data...
Loading historical data...

STARLINK-32615 Visibility forecast

Observer location: undefined°, undefined

Span
Click to sort rows by Start time (UTC) header in descending order
Start Az.
Max El. time (UTC)
Max El. Az.
Max El.
End time (UTC)
End Az.
4 mins2024-12-14 00:08:55.816Z186.539° SSW2024-12-14 00:10:55.816Z149.185° SSE16.229°2024-12-14 00:12:55.816Z108.153° ESE
5 mins2024-12-14 01:45:55.816Z245.456° WSW2024-12-14 01:47:55.816Z218.689° SW43.565°2024-12-14 01:50:55.816Z73.485° E
5 mins2024-12-14 03:23:55.816Z291.278° WNW2024-12-14 03:25:55.816Z9.246° NNE36.308°2024-12-14 03:28:55.816Z73.161° E
4 mins2024-12-14 05:01:55.816Z296.875° NW2024-12-14 05:02:55.816Z319.4° NNW40.567°2024-12-14 05:05:55.816Z98.03° ESE
4 mins2024-12-14 06:38:55.816Z258.049° W2024-12-14 06:40:55.816Z200.634° SSW25.218°2024-12-14 06:42:55.816Z155.589° SSE
|